Overview Statistics Trail Chart Weather Telemetry Raw packets
 

This is the latest recevied weather packets stored in our database for station/object KI5NXU. If no packets are shown the sender has not sent any weather packets the latest 10 day(s).

<< 70 71 72 73 74 75 76 >>
Time Temp. Humidity Pressure Rain* Wind** Luminosity Snow
1787874183 35° C 42% 1014.1 hPa 0 mm - 56 W/m² -
1787873878 35° C 43% 1014.1 hPa 0 mm - 64 W/m² -
1787873577 35° C 43% 1014 hPa 0 mm - 77 W/m² -
1787873273 35° C 43% 1014.1 hPa 0 mm - 95 W/m² -
1787872971 35° C 43% 1013.8 hPa 0 mm - 109 W/m² -
1787872667 35° C 43% 1014.1 hPa 0 mm - 101 W/m² -
1787872362 34.44° C 43% 1014 hPa 0 mm - 86 W/m² -
1787872057 34.44° C 43% 1014.3 hPa 0 mm - 73 W/m² -
1787871752 34.44° C 44% 1014 hPa 0 mm - 64 W/m² -
1787871447 34.44° C 44% 1013.9 hPa 0 mm - 50 W/m² -
1787871142 34.44° C 44% 1014.3 hPa 0 mm - 51 W/m² -
1787870842 34.44° C 44% 1013.9 hPa 0 mm - 49 W/m² -
1787870536 35° C 44% 1014.1 hPa 0 mm - 44 W/m² -
1787870232 35° C 43% 1014.3 hPa 0 mm - 49 W/m² -
1787869927 35° C 43% 1014.3 hPa 0 mm - 56 W/m² -
1787869625 35.56° C 42% 1014.1 hPa 0 mm - 61 W/m² -
1787869321 35.56° C 43% 1014.3 hPa 0 mm - 95 W/m² -
1787869020 35.56° C 44% 1014.3 hPa 0 mm - 131 W/m² -
1787868714 36.11° C 44% 1014.3 hPa 0 mm - 146 W/m² -
1787868411 36.11° C 44% 1014 hPa 0 mm - 327 W/m² -
1787868106 35.56° C 44% 1014.1 hPa 0 mm - 159 W/m² -
1787867802 36.11° C 44% 1014.1 hPa 0 mm - 150 W/m² -
1787867497 36.67° C 43% 1014.3 hPa 0 mm - 170 W/m² -
1787867192 36.67° C 43% 1014.5 hPa 0 mm - 413 W/m² -
1787866887 36.11° C 44% 1014.2 hPa 0 mm - 413 W/m² -

* Rain latest hour (hover to see other rain measurements)
** Current wind speed in m/s (hover to see current wind gust speed)